F0657D65 Weather Reports


time (UTC)temp
F
wind
direction
speed
knots
gust
knots
rain 1hr
in
rain 24hr
in
rain mn
in
humidity
%
barometer
mb
20260505093030 53 17 0.0 0.0 0.00 0.28 0.00 99 1010.4
20260505091528 53 44 0.9 3.5 0.00 0.28 0.00 99 1010.5
20260505090031 53 92 0.0 7.8 0.00 0.28 0.00 99 1010.5
20260505084528 52 81 0.0 2.6 0.00 0.28 0.00 99 1010.6
20260505083026 53 80 0.0 2.6 0.00 0.28 0.00 99 1010.5
20260505081539 53 96 0.0 4.3 0.00 0.28 0.00 99 1010.4
20260505080033 53 80 0.0 2.6 0.00 0.28 0.00 99 1010.5
20260505074525 52 78 0.0 1.7 0.00 0.28 0.00 99 1010.4
20260505073029 52 66 0.0 1.7 0.00 0.28 0.00 99 1010.4
20260505071542 52 42 0.0 2.6 0.00 0.28 0.00 99 1010.4
20260505070020 52 115 0.0 1.7 0.00 0.28 0.00 99 1010.6
20260505064523 51 55 0.9 2.6 0.00 0.28 0.00 99 1010.7
20260505063018 51 74 0.0 0.9 0.00 0.28 0.00 99 1010.8
20260505061518 51 89 0.0 2.6 0.00 0.28 0.00 99 1010.8
20260505060016 51 92 0.9 4.3 0.00 0.28 0.00 99 1010.7
20260505054513 51 107 0.0 2.6 0.00 0.28 0.00 99 1010.9
20260505053019 51 80 0.0 3.5 0.00 0.28 0.00 99 1010.6
20260505051514 51 39 0.0 2.6 0.00 0.28 0.00 99 1010.8
20260505041514 51 76 0.0 2.6 0.00 0.28 0.00 99 1011.1
20260505040007 51 84 0.0 1.7 0.00 0.28 0.00 99 1011.2
20260505034506 51 57 0.9 1.7 0.00 0.28 0.00 99 1011.3
20260505033005 51 76 0.0 0.0 0.00 0.28 0.00 99 1011.4
20260505031502 51 65 0.0 3.5 0.00 0.28 0.00 99 1011.6
20260505030105 51 82 0.0 0.0 0.00 0.28 0.00 98 1011.6
20260505024558 52 84 0.0 0.0 0.00 0.28 0.00 99 1011.7
20260505023107 52 80 0.0 0.0 0.00 0.28 0.00 99 1011.8
20260505021600 52 86 0.0 0.0 0.00 0.28 0.00 99 1011.8
20260505020058 52 73 0.0 0.0 0.00 0.28 0.00 98 1011.8
20260505014554 52 69 0.9 2.6 0.00 0.28 0.00 99 1011.8
20260505013053 53 115 0.9 2.6 0.00 0.28 0.00 99 1011.7
20260505011555 53 61 0.0 0.0 0.00 0.28 0.00 99 1011.8
20260505010055 53 49 0.0 1.7 0.00 0.30 0.00 99 1011.8
20260505004550 53 55 0.9 2.6 0.00 0.30 0.00 99 1011.8
20260505003048 53 33 0.0 1.7 0.00 0.30 0.00 98 1011.9
20260505001547 53 80 0.0 2.6 0.00 0.30 0.00 98 1012.1
20260505000050 53 65 0.0 4.3 0.00 0.30 0.00 98 1012.1
20260504234544 54 130 0.9 2.6 0.00 0.30 0.00 98 1012.1
20260504233044 54 62 0.9 2.6 0.00 0.30 0.00 98 1012.3
20260504231542 54 34 0.0 2.6 0.00 0.30 0.00 98 1012.4
20260504230040 55 92 0.0 0.9 0.00 0.37 0.00 98 1012.5
20260504224540 55 329 0.0 1.7 0.00 0.37 0.00 98 1012.5
20260504223039 55 38 0.0 1.7 0.00 0.37 0.00 98 1012.4
20260504221538 55 35 0.0 1.7 0.00 0.37 0.00 98 1012.5
20260504220035 55 41 0.0 1.7 0.00 0.78 0.37 98 1012.8
20260504214542 55 74 0.0 1.7 0.00 0.78 0.37 98 1012.9
20260504213038 55 42 0.0 0.9 0.00 0.78 0.37 98 1013.1
20260504211533 56 63 0.0 4.3 0.00 0.78 0.37 98 1013.2
20260504210032 56 246 0.0 2.6 0.00 0.78 0.37 98 1013.5
20260504204530 56 333 0.0 2.6 0.00 0.78 0.37 98 1013.6
20260504203032 56 355 0.0 6.1 0.00 0.78 0.37 97 1013.6
20260504201530 56 5 0.0 1.7 0.00 0.78 0.37 97 1013.3
20260504200038 56 319 0.0 2.6 0.00 0.78 0.37 97 1013.2
20260504194529 56 320 0.0 1.7 0.01 0.78 0.37 97 1013.1
20260504193029 56 320 0.0 1.7 0.01 0.78 0.37 97 1013.0
20260504191541 56 342 0.0 0.0 0.02 0.78 0.37 96 1012.8
20260504190027 56 342 0.0 0.0 0.02 0.78 0.37 97 1012.7
20260504184525 57 10 0.0 0.0 0.02 0.77 0.36 97 1012.6
20260504183037 57 10 0.0 0.0 0.02 0.77 0.36 97 1012.8
20260504181527 57 10 0.0 0.0 0.02 0.76 0.35 97 1012.9
20260504180025 57 10 0.0 0.0 0.02 0.77 0.35 97 1012.7
20260504174524 57 10 0.0 0.0 0.02 0.76 0.35 97 1012.5
20260504173028 57 10 0.0 0.0 0.02 0.76 0.34 97 1012.6
20260504171523 57 10 0.0 0.0 0.03 0.76 0.34 96 1012.7